Regional Weather Roundup
Issued by NWS

Home | Current Version | Previous Version | Text Only | Print | Product List | Glossary Off
Versions: 1 2 3 4 5 6 7 8 9 10 11 12 13 14 15 16 17 18 19 20 21 22 23 24 25 26 27

000
ASUS45 KTFX 251810
RWRMT
MONTANA REGIONAL WEATHER ROUNDUP
NATIONAL WEATHER SERVICE GREAT FALLS MT
1200 PM MDT THU AUG 25 2016

NOTE: "FAIR" INDICATES FEW OR NO CLOUDS BELOW 12000 FEET WITH NO
SIGNIFICANT WEATHER AND/OR OBSTRUCTIONS TO VISIBILITY.

MTZ001>007-043-251900-
WEST OF THE DIVIDE

CITY           SKY/WX    TMP DP  RH WIND       PRES   REMARKS
KALISPELL      MOSUNNY   64  40  41 E7G17     30.24F
MISSOULA       MOSUNNY   65  38  36 CALM      30.24F
BUTTE          SUNNY     58  30  34 SE6       30.28F
MULLAN PASS    SUNNY     56  33  42 VRB3      30.31F
DEER LODGE       N/A     61  30  31 CALM      30.29F
EUREKA           N/A     63  37  39 CALM      30.25F
HAMILTON         N/A     61  37  41 N6        30.24F
LIBBY            N/A     64  36  34 N3        30.22F
RONAN            N/A     67  43  41 W6        30.26F
$$

MTZ008-052>055-251900-
SOUTHWEST MONTANA

CITY           SKY/WX    TMP DP  RH WIND       PRES   REMARKS
BOZEMAN        SUNNY     61  37  41 N3        30.27F
DILLON         SUNNY     60  33  36 N8        30.27F
W YELLOWSTONE  SUNNY     55  32  41 N5        30.29F
ENNIS          SUNNY     59  34  38 NE5G12    30.31F
THREE FORKS      N/A     61  15  16 NE1       30.24F
TWIN BRIDGES     N/A     60  31  33 NW5       30.23F
$$

MTZ009-010-012-014-046-048-049-054-251900-
EAST SLOPES AND CENTRAL MONTANA

CITY           SKY/WX    TMP DP  RH WIND       PRES   REMARKS
CUT BANK       MOSUNNY   64  36  35 NW6       30.25F
GREAT FALLS    SUNNY     66  37  34 VRB5      30.25F
MALMSTROM AFB  SUNNY     64  39  40 NE3       30.26F
HELENA         SUNNY     64  38  38 VRB3      30.25F
CHOTEAU          N/A     64  34  32 N9        30.27F
$$

MTZ011-013-016-021-045-047-050-051-251900-
NORTH CENTRAL MONTANA

CITY           SKY/WX    TMP DP  RH WIND       PRES   REMARKS
HAVRE          MOSUNNY   67  44  43 W10       30.23F
LEWISTOWN      SUNNY     62  34  35 CALM      30.27F
N BAR RANCH    PTSUNNY   61  36  39 E7        30.28F
CHINOOK          N/A     66  45  45 W10       30.22F
$$

MTZ017>020-022>027-061-062-251900-
NORTHEAST MONTANA

CITY           SKY/WX    TMP DP  RH WIND       PRES   REMARKS
GLASGOW        SUNNY     67  42  40 SW9G17    30.20F
JORDAN           N/A     66  39  37 NW6       30.23F
SIDNEY         MOSUNNY   70  42  36 N10       30.18F
WOLF POINT     MOSUNNY   70  44  39 SW8       30.19F
POPLAR           N/A     66  45  45 W14       30.20F
$$

MTZ028>42-056>058-251900-
SOUTHCENTRAL AND SOUTHEAST MONTANA

CITY           SKY/WX    TMP DP  RH WIND       PRES   REMARKS
BAKER          MOSUNNY   64  42  44 MISG      30.26F
BILLINGS       MOSUNNY   62  39  42 SE7       30.27F
LIVINGSTON     SUNNY     62  37  39 VRB7      30.27F
MILES CITY     CLOUDY    63  41  44 W6        30.26F
FORSYTH          N/A     61  43  51 CALM      30.27F
LAUREL           N/A     62  38  41 E5        30.24F
ROUNDUP          N/A     63  38  39 S6        30.16F
$$

REGIONAL REPORTS...DAKOTAS

CITY           SKY/WX    TMP DP  RH WIND       PRES   REMARKS
WILLISTON      MOSUNNY   72  40  31 W8        30.17F
MINOT          PTSUNNY   68  48  48 W12       30.12F
DICKINSON      PTSUNNY   63  41  44 N7        30.20F
CROSBY           N/A     72  41  33 NW12G17   30.16F
WATFORD CITY     N/A     68  41  37 NW12G17   30.18F
BISMARCK       CLOUDY    63  49  60 W10       30.18R
GRAND FORKS    MOSUNNY   68  51  54 N20       30.02R
FARGO          CLOUDY    63  55  75 NW14      30.05R
BUFFALO SD       N/A     64  43  46 N14G20    30.19F
RAPID CITY     CLOUDY    64  44  48 N8        30.28F
$$

REGIONAL REPORTS...WYOMING/IDAHO/WASHINGTON

CITY           SKY/WX    TMP DP  RH WIND       PRES   REMARKS
GILLETTE       PTSUNNY   59  39  47 VRB6      30.30F
SHERIDAN       MOSUNNY   63  39  41 E6        30.28F
BUFFALO WY     CLOUDY    59  38  45 S10       30.32F
CODY           CLOUDY    57  41  54 NW5       30.29F
YELLOWSTONE LA   N/A     53  37  54 E5        30.34F
IDAHO FALLS    MOSUNNY   65  37  35 NE8       30.19F SMOKE
SALMON         SUNNY     63  34  34 CALM      30.21F
BOISE          SUNNY     75  33  21 CALM      30.12F
SPOKANE        MOSUNNY   73  39  29 NE6       30.18F
$$

REGIONAL REPORTS...ALBERTA

CITY           SKY/WX    TMP DP  RH WIND       PRES   REMARKS
EDMONTON       MOSUNNY   63  54  72 NW13      30.19S
CALGARY        PTSUNNY   61  48  63 N13       30.26F
LETHBRIDGE     PTSUNNY   59  46  63 NW14      30.26S
MEDICINE HAT   CLOUDY    59  50  72 W7        30.22F
MILK RIVER       N/A     63  43  48 N13         N/A
ONEFOUR          N/A     63  43  48 W6          N/A
$$

REGIONAL REPORTS...SASKATCHEWAN

CITY           SKY/WX    TMP DP  RH WIND       PRES   REMARKS
SWIFT CURRENT  PTSUNNY   59  52  77 W12       30.17S
REGINA         MOSUNNY   68  46  45 W6        30.12F
SASKATOON      PTSUNNY   68  50  52 SW8       30.10F
CYPRESS HILLS    N/A     57  45  62 NW7         N/A
VAL MARIE        N/A     66  43  42 W6          N/A
ROCKGLEN         N/A     66  43  42 W12G18      N/A
ASSINIBOIA       N/A     61  57  88 NW10        N/A
$$




USA.gov is the U.S. government's official web portal to all federal, state and local government web resources and services.